When you browse on this site, cookies collect data to enhance your experience and personalize the content and advertising you see.
Visit our Privacy Policy to learn more. By continuing to use the site, you agree to this use of cookies and data.
  • In Netherlands
  • List of Countries
  • For 7 days
  • Water Temperature
  • Weather Map
  • Weather Widgets
  • user-avatar
    Login

    Hourly Weather Gloucester

    Today, 19 September, Thursday

    Time Temperature Precipitation Wind Pressure Humidity
    00:00 +11°C° 0 mm 1 mps 767 mmHg 87%
    01:00 +11°C° 0 mm 1 mps 767 mmHg 88%
    02:00 +10°C° 0 mm 1 mps 767 mmHg 88%
    03:00 +10°C° 0 mm 1 mps 766 mmHg 89%
    04:00 +10°C° 0 mm 1 mps 766 mmHg 89%
    05:00 +10°C° 0 mm 1 mps 767 mmHg 89%
    06:00 +9°C° 0 mm 0 mps 767 mmHg 89%
    07:00 +10°C° 0 mm 0 mps 767 mmHg 83%
    08:00 +13°C° 0 mm 1 mps 767 mmHg 77%
    09:00 +15°C° 0 mm 1 mps 767 mmHg 71%
    10:00 +18°C° 0 mm 1 mps 767 mmHg 67%
    11:00 +19°C° 0 mm 1 mps 767 mmHg 62%
    12:00 +20°C° 0 mm 1 mps 767 mmHg 57%
    13:00 +21°C° 0 mm 1 mps 767 mmHg 56%
    14:00 +21°C° 0 mm 1 mps 767 mmHg 55%
    15:00 +21°C° 0 mm 1 mps 766 mmHg 54%
    16:00 +20°C° 0 mm 1 mps 766 mmHg 59%
    17:00 +19°C° 0 mm 1 mps 766 mmHg 65%
    18:00 +16°C° 0 mm 1 mps 765 mmHg 70%
    19:00 +15°C° 0 mm 1 mps 766 mmHg 73%
    20:00 +14°C° 0 mm 1 mps 766 mmHg 76%
    21:00 +14°C° 0 mm 1 mps 766 mmHg 79%
    22:00 +13°C° 0 mm 1 mps 766 mmHg 81%
    23:00 +13°C° 0 mm 1 mps 765 mmHg 84%

    Tomorrow, 20 September, Friday

    Time Temperature Precipitation Wind Pressure Humidity
    00:00 +12°C° 0 mm 1 mps 765 mmHg 87%
    01:00 +12°C° 0 mm 1 mps 765 mmHg 88%
    02:00 +11°C° 0 mm 1 mps 765 mmHg 89%
    03:00 +11°C° 0 mm 1 mps 764 mmHg 90%
    04:00 +10°C° 0 mm 1 mps 764 mmHg 91%
    05:00 +10°C° 0 mm 1 mps 763 mmHg 92%
    06:00 +9°C° 0 mm 2 mps 763 mmHg 92%
    07:00 +12°C° 0 mm 2 mps 763 mmHg 85%
    08:00 +13°C° 0 mm 3 mps 763 mmHg 78%
    09:00 +15°C° 0 mm 4 mps 763 mmHg 71%
    10:00 +16°C° 0 mm 5 mps 762 mmHg 65%
    11:00 +17°C° 0 mm 5 mps 762 mmHg 59%
    12:00 +20°C° 0 mm 6 mps 761 mmHg 53%
    13:00 +20°C° 0 mm 6 mps 760 mmHg 52%
    14:00 +20°C° 0 mm 6 mps 760 mmHg 51%
    15:00 +20°C° 0 mm 6 mps 759 mmHg 51%
    16:00 +19°C° 0 mm 5 mps 758 mmHg 55%
    17:00 +16°C° 0 mm 5 mps 758 mmHg 60%
    18:00 +15°C° 0 mm 4 mps 757 mmHg 64%
    19:00 +14°C° 0 mm 5 mps 757 mmHg 66%
    20:00 +13°C° 0 mm 5 mps 757 mmHg 68%
    21:00 +12°C° 0 mm 5 mps 757 mmHg 70%
    22:00 +12°C° 0 mm 5 mps 756 mmHg 70%
    23:00 +12°C° 0 mm 5 mps 756 mmHg 70%

    Day after tomorrow, 21 September, Saturday

    Time Temperature Precipitation Wind Pressure Humidity
    00:00 +12°C° 0 mm 5 mps 755 mmHg 70%
    01:00 +12°C° 0 mm 5 mps 754 mmHg 70%
    02:00 +10°C° 0 mm 5 mps 754 mmHg 71%
    03:00 +11°C° 0 mm 4 mps 753 mmHg 71%
    04:00 +11°C° 0 mm 4 mps 753 mmHg 73%
    05:00 +10°C° 0 mm 4 mps 752 mmHg 74%
    06:00 +10°C° 0 mm 4 mps 752 mmHg 76%
    07:00 +11°C° 0 mm 4 mps 752 mmHg 73%
    08:00 +13°C° 0 mm 5 mps 751 mmHg 70%
    09:00 +15°C° 0 mm 5 mps 751 mmHg 66%
    10:00 +16°C° 0 mm 5 mps 751 mmHg 64%
    11:00 +19°C° 0 mm 5 mps 750 mmHg 62%
    12:00 +21°C° 0 mm 5 mps 750 mmHg 60%
    13:00 +22°C° 0 mm 5 mps 750 mmHg 61%
    14:00 +22°C° 0 mm 6 mps 749 mmHg 62%
    15:00 +23°C° 0 mm 6 mps 748 mmHg 63%
    16:00 +22°C° 0 mm 5 mps 748 mmHg 69%
    17:00 +21°C° 0 mm 4 mps 748 mmHg 74%
    18:00 +19°C° 0 mm 4 mps 748 mmHg 80%
    19:00 +19°C° 0.1 mm 4 mps 747 mmHg 82%
    20:00 +18°C° 0.1 mm 4 mps 747 mmHg 83%
    21:00 +18°C° 0.1 mm 4 mps 747 mmHg 85%
    22:00 +18°C° 0.1 mm 4 mps 746 mmHg 86%
    23:00 +17°C° 0.1 mm 4 mps 746 mmHg 88%

    22 September, Sunday

    Time Temperature Precipitation Wind Pressure Humidity
    00:00 +17°C° 0.1 mm 3 mps 746 mmHg 90%
    01:00 +17°C° 0.1 mm 3 mps 745 mmHg 91%
    02:00 +17°C° 0.1 mm 3 mps 745 mmHg 92%
    03:00 +17°C° 0.1 mm 3 mps 744 mmHg 93%
    04:00 +16°C° 0 mm 3 mps 744 mmHg 93%
    05:00 +16°C° 0 mm 3 mps 744 mmHg 94%
    06:00 +16°C° 0 mm 3 mps 744 mmHg 94%
    07:00 +16°C° 1.2 mm 3 mps 744 mmHg 94%
    08:00 +16°C° 1.2 mm 3 mps 745 mmHg 94%
    09:00 +16°C° 1.2 mm 3 mps 745 mmHg 93%
    10:00 +17°C° 0.1 mm 4 mps 745 mmHg 88%
    11:00 +17°C° 0.1 mm 5 mps 745 mmHg 82%
    12:00 +17°C° 0.1 mm 5 mps 746 mmHg 77%
    13:00 +19°C° 0 mm 5 mps 746 mmHg 73%
    14:00 +19°C° 0 mm 5 mps 745 mmHg 70%
    15:00 +20°C° 0 mm 5 mps 745 mmHg 67%
    16:00 +18°C° 0.1 mm 4 mps 745 mmHg 72%
    17:00 +17°C° 0.1 mm 4 mps 745 mmHg 78%
    18:00 +16°C° 0.1 mm 3 mps 745 mmHg 83%
    19:00 +14°C° 0 mm 3 mps 746 mmHg 87%
    20:00 +14°C° 0 mm 2 mps 746 mmHg 90%
    21:00 +13°C° 0 mm 2 mps 746 mmHg 94%
    22:00 +13°C° 0 mm 2 mps 747 mmHg 94%
    23:00 +12°C° 0 mm 3 mps 747 mmHg 95%

    23 September, Monday

    Time Temperature Precipitation Wind Pressure Humidity
    00:00 +12°C° 0 mm 3 mps 747 mmHg 95%
    01:00 +12°C° 0 mm 3 mps 748 mmHg 95%
    02:00 +12°C° 0 mm 3 mps 748 mmHg 95%
    03:00 +12°C° 0 mm 3 mps 748 mmHg 95%
    04:00 +12°C° 0 mm 3 mps 749 mmHg 94%
    05:00 +12°C° 0 mm 3 mps 749 mmHg 94%
    06:00 +11°C° 0 mm 3 mps 749 mmHg 93%
    07:00 +12°C° 0 mm 4 mps 750 mmHg 88%
    08:00 +14°C° 0 mm 4 mps 750 mmHg 82%
    09:00 +15°C° 0 mm 4 mps 750 mmHg 77%
    10:00 +17°C° 0 mm 4 mps 750 mmHg 72%
    11:00 +18°C° 0 mm 4 mps 750 mmHg 67%
    12:00 +19°C° 0 mm 5 mps 750 mmHg 62%
    13:00 +17°C° 0.1 mm 5 mps 750 mmHg 67%
    14:00 +17°C° 0.1 mm 5 mps 749 mmHg 72%
    15:00 +16°C° 0.1 mm 5 mps 749 mmHg 77%
    16:00 +15°C° 0.4 mm 5 mps 749 mmHg 83%
    17:00 +15°C° 0.4 mm 4 mps 748 mmHg 88%
    18:00 +14°C° 0.4 mm 4 mps 748 mmHg 93%
    19:00 +15°C° 0.1 mm 4 mps 748 mmHg 94%
    20:00 +16°C° 0.1 mm 3 mps 748 mmHg 96%
    21:00 +16°C° 0.1 mm 3 mps 749 mmHg 97%
    22:00 +16°C° 0 mm 3 mps 749 mmHg 97%
    23:00 +16°C° 0 mm 3 mps 749 mmHg 97%

    24 September, Tuesday

    Time Temperature Precipitation Wind Pressure Humidity
    00:00 +16°C° 0 mm 3 mps 749 mmHg 97%
    01:00 +16°C° 0 mm 3 mps 749 mmHg 97%
    02:00 +16°C° 0 mm 3 mps 748 mmHg 96%
    03:00 +16°C° 0 mm 3 mps 748 mmHg 96%
    04:00 +16°C° 0 mm 3 mps 748 mmHg 96%
    05:00 +16°C° 0 mm 3 mps 747 mmHg 97%
    06:00 +16°C° 0 mm 3 mps 747 mmHg 97%
    07:00 +15°C° 0.6 mm 4 mps 746 mmHg 96%
    08:00 +16°C° 0.6 mm 5 mps 745 mmHg 94%
    09:00 +16°C° 0.6 mm 6 mps 744 mmHg 93%
    10:00 +17°C° 1.5 mm 7 mps 743 mmHg 93%
    11:00 +17°C° 1.5 mm 8 mps 743 mmHg 93%
    12:00 +17°C° 1.5 mm 8 mps 742 mmHg 93%
    13:00 +17°C° 0.3 mm 8 mps 742 mmHg 88%
    14:00 +17°C° 0.3 mm 9 mps 742 mmHg 84%
    15:00 +16°C° 0.3 mm 9 mps 742 mmHg 79%
    16:00 +16°C° 0.2 mm 8 mps 743 mmHg 81%
    17:00 +15°C° 0.2 mm 7 mps 743 mmHg 84%
    18:00 +14°C° 0.2 mm 6 mps 743 mmHg 86%
    19:00 +14°C° 0 mm 5 mps 744 mmHg 89%
    20:00 +13°C° 0 mm 4 mps 744 mmHg 91%
    21:00 +13°C° 0 mm 4 mps 744 mmHg 94%
    22:00 +13°C° 0.2 mm 4 mps 744 mmHg 93%
    23:00 +14°C° 0.2 mm 5 mps 744 mmHg 92%
    Show more